This demonstration page uses our WeatherBlox Daily Observations layout. Learn more.

Left ArrowRight Arrow

39.92423, -83.80882

Hourly Observations for June 21, 2021

Temp ( °F °C ) Dew Point ( °F °C ) Humidity (%) Winds ( mph kmh ) Pressure ( in mb ) Visibility ( mi km ) Precip ( " mm )
12:56 am 00:56 Clear 76 24.4 73 22.8 91 91 SSW 9 15 29.66 1004 10 16 N/A
1:56 am 01:56 Clear 76 24.4 73 22.8 91 91 SSW 10 17 29.65 1004 10 16 N/A
2:56 am 02:56 Mostly Clear 75 23.9 73 22.8 94 94 SSW 13 20 29.65 1004 10 16 N/A
3:56 am 03:56 Mostly Cloudy 75 23.9 73 22.8 94 94 SSW 10 17 29.63 1004 10 16 N/A
4:56 am 04:56 Clear 75 23.9 73 22.8 94 94 SSW 9 15 29.64 1004 10 16 N/A
5:56 am 05:56 Partly Cloudy 74 23.3 74 23.3 100 100 SSW 9 15 29.64 1004 10 16 N/A
6:56 am 06:56 Partly Cloudy 75 23.9 74 23.3 96 96 SW 9 15 29.63 1003 10 16 N/A
7:42 am 07:42 Cloudy 75 24 75 24 100 100 SW 12 19 29.62 1003 10 16 N/A
7:56 am 07:56 Mostly Cloudy 75 23.9 75 23.9 100 100 SW 14 22 29.63 1003 10 16 N/A
8:03 am 08:03 Partly Cloudy 75 24 73 23 94 94 SW 14 22 29.62 1003 10 16 N/A
8:15 am 08:15 Mostly Cloudy 75 24 73 23 94 94 SW 14 22 29.62 1003 10 16 N/A
8:51 am 08:51 Mostly Cloudy 79 26 73 23 84 84 SW 12 19 29.60 1002 10 16 N/A
8:56 am 08:56 Mostly Cloudy 78 25.6 74 23.3 87 87 SW 13 20 29.62 1003 10 16 N/A
9:12 am 09:12 Mostly Cloudy 79 26 73 23 84 84 SW 17 28 29.60 1002 10 16 N/A
9:45 am 09:45 Partly Cloudy 81 27 73 23 79 79 SW 21 33 29.61 1003 10 16 N/A
9:56 am 09:56 Partly Cloudy 81 27.2 73 22.8 77 77 WSW 18 30 29.64 1004 10 16 N/A
10:11 am 10:11 Mostly Cloudy 81 27 73 23 79 79 WSW 23 37 29.62 1003 10 16 N/A
10:18 am 10:18 Partly Cloudy 81 27 73 23 79 79 SW 23 37 29.61 1003 10 16 N/A
10:56 am 10:56 Mostly Sunny 83 28.3 73 22.8 72 72 WSW 21 33 29.65 1004 10 16 N/A
11:56 am 11:56 Cloudy 82 27.8 71 21.7 69 69 WSW 21 33 29.66 1004 10 16 N/A
12:56 pm 12:56 Cloudy 79 26.1 70 21.1 74 74 WSW 22 35 29.66 1004 10 16 0.00 0.00
1:37 pm 13:37 Mostly Cloudy 79 26 72 22 79 79 W 14 22 29.63 1003 10 16 0.00 0.00
1:56 pm 13:56 Cloudy 79 26.1 71 21.7 77 77 WNW 17 28 29.65 1004 10 16 0.00 0.00
2:20 pm 14:20 Cloudy 81 27 72 22 74 74 WNW 16 26 29.62 1003 10 16 N/A
2:36 pm 14:36 Cloudy 79 26 70 21 74 74 WNW 18 30 29.63 1003 10 16 N/A
2:56 pm 14:56 Cloudy 76 24.4 69 20.6 79 79 NW 17 28 29.66 1004 10 16 N/A
3:23 pm 15:23 Cloudy 75 24 66 19 74 74 W 17 28 29.65 1004 10 16 N/A
3:56 pm 15:56 Mostly Cloudy 77 25 66 18.9 69 69 W 15 24 29.68 1005 10 16 N/A
4:56 pm 16:56 Partly Cloudy 76 24.4 63 17.2 64 64 WNW 15 24 29.70 1006 10 16 N/A
5:56 pm 17:56 Mostly Sunny 73 22.8 63 17.2 71 71 NW 16 26 29.71 1006 10 16 N/A
6:56 pm 18:56 Cloudy 70 21.1 61 16.1 73 73 NNW 15 24 29.75 1007 10 16 N/A
7:56 pm 19:56 Mostly Cloudy 67 19.4 58 14.4 73 73 NNW 12 19 29.75 1007 10 16 N/A
8:56 pm 20:56 Cloudy 66 18.9 59 15 78 78 NNW 8 13 29.77 1008 10 16 N/A
9:56 pm 21:56 Cloudy with Light Rain 63 17.2 63 17.2 100 100 NNW 3 6 29.82 1010 10 16 0.00 0.00
10:56 pm 22:56 Cloudy with Light Rain 63 17.2 63 17.2 100 100 N N/A 29.84 1010 10 16 0.01 0.25
11:56 pm 23:56 Partly Cloudy 63 17 N/A N/A WSW 5 7 29.86 1011 10 16 0.01 0.25

Powered by AerisWeather